Orbital Elements at Epoch 2459000.5 (2020-May-31.0) TDB
Reference: JPL 31 (heliocentric ecliptic J2000)
Element | Value | Uncertainty (1-sigma) | Units |
e | .125171860514411 | 3.2258e-08 | |
a | 2.7661860476861 | 1.2538e-08 | au |
q | 2.419937393568226 | 9.0849e-08 | au |
i | 3.623260745359305 | 3.6611e-06 | deg |
node | 76.56821538544692 | 5.6882e-05 | deg |
peri | 281.2597785871636 | 5.8759e-05 | deg |
M | 121.1599334559447 | 1.426e-05 | deg |
tp | 2458434.942153755254 (2018-Nov-12.44215376) | 6.6732e-05 | TDB |
period | 1680.430310917431 4.60 | 1.1425e-05 3.128e-08 | d yr |
n | .2142308417440162 | 1.4565e-09 | deg/d |
Q | 3.112434701803974 | 1.4107e-08 | au |
|
| | Orbit Determination Parameters
Additional Information
|